When you browse on this site, cookies collect data to enhance your experience and personalize the content and advertising you see.
Visit our Privacy Policy to learn more. By continuing to use the site, you agree to this use of cookies and data.
  • In Hungary
  • List of Countries
  • For 7 days
  • Water Temperature
  • Weather Map
  • News
  • Weather Widgets
  • user-avatar
    Login

    Hourly Weather Sadovyy

    Today, 20 January, Monday

    Time Temperature Precipitation Wind Pressure Humidity
    00:00 -5°C° 0.2 mm 2 mps 739 mmHg 96%
    01:00 -5°C° 0.2 mm 2 mps 739 mmHg 96%
    02:00 -5°C° 0.3 mm 2 mps 739 mmHg 96%
    03:00 -5°C° 0.3 mm 2 mps 738 mmHg 96%
    04:00 -3°C° 0 mm 1 mps 738 mmHg 97%
    05:00 -3°C° 0.4 mm 1 mps 738 mmHg 97%
    06:00 -3°C° 0.4 mm 1 mps 737 mmHg 97%
    07:00 -3°C° 0.4 mm 1 mps 737 mmHg 97%
    08:00 -4°C° 0.4 mm 1 mps 737 mmHg 96%
    09:00 -7°C° 0.4 mm 2 mps 737 mmHg 95%
    10:00 -8°C° 0 mm 2 mps 737 mmHg 94%
    11:00 -8°C° 0.2 mm 2 mps 737 mmHg 93%
    12:00 -9°C° 0.2 mm 2 mps 737 mmHg 92%
    13:00 -9°C° 0.2 mm 2 mps 737 mmHg 91%
    14:00 -10°C° 0.1 mm 2 mps 737 mmHg 92%
    15:00 -10°C° 0.1 mm 2 mps 737 mmHg 93%
    16:00 -10°C° 0 mm 1 mps 737 mmHg 95%
    17:00 -10°C° 0 mm 1 mps 737 mmHg 95%
    18:00 -11°C° 0 mm 1 mps 737 mmHg 95%
    19:00 -11°C° 0 mm 1 mps 737 mmHg 96%
    20:00 -12°C° 0 mm 1 mps 737 mmHg 96%
    21:00 -12°C° 0 mm 1 mps 737 mmHg 96%
    22:00 -13°C° 0 mm 1 mps 737 mmHg 96%
    23:00 -13°C° 0 mm 1 mps 737 mmHg 96%

    Tomorrow, 21 January, Tuesday

    Time Temperature Precipitation Wind Pressure Humidity
    00:00 -14°C° 0 mm 1 mps 737 mmHg 97%
    01:00 -15°C° 0 mm 1 mps 736 mmHg 97%
    02:00 -15°C° 0 mm 1 mps 736 mmHg 97%
    03:00 -15°C° 0 mm 1 mps 736 mmHg 98%
    04:00 -16°C° 0 mm 1 mps 736 mmHg 98%
    05:00 -16°C° 0 mm 1 mps 736 mmHg 98%
    06:00 -16°C° 0 mm 1 mps 736 mmHg 98%
    07:00 -16°C° 0 mm 1 mps 735 mmHg 98%
    08:00 -16°C° 0 mm 1 mps 735 mmHg 97%
    09:00 -17°C° 0 mm 2 mps 735 mmHg 96%
    10:00 -17°C° 0 mm 2 mps 735 mmHg 95%
    11:00 -16°C° 0 mm 2 mps 734 mmHg 94%
    12:00 -15°C° 0 mm 2 mps 734 mmHg 92%
    13:00 -15°C° 0 mm 3 mps 733 mmHg 91%
    14:00 -15°C° 0 mm 3 mps 733 mmHg 92%
    15:00 -14°C° 0 mm 2 mps 733 mmHg 94%
    16:00 -15°C° 0 mm 2 mps 733 mmHg 96%
    17:00 -15°C° 0 mm 2 mps 732 mmHg 96%
    18:00 -15°C° 0 mm 2 mps 731 mmHg 96%
    19:00 -14°C° 0 mm 2 mps 730 mmHg 96%
    20:00 -14°C° 0 mm 2 mps 730 mmHg 96%
    21:00 -15°C° 0 mm 3 mps 729 mmHg 96%
    22:00 -14°C° 0 mm 3 mps 729 mmHg 95%
    23:00 -14°C° 0 mm 3 mps 728 mmHg 95%

    Day after tomorrow, 22 January, Wednesday

    Time Temperature Precipitation Wind Pressure Humidity
    00:00 -13°C° 0 mm 3 mps 727 mmHg 94%
    01:00 -12°C° 0 mm 3 mps 726 mmHg 93%
    02:00 -12°C° 0 mm 3 mps 726 mmHg 92%
    03:00 -12°C° 0 mm 4 mps 725 mmHg 91%
    04:00 -12°C° 0 mm 4 mps 724 mmHg 90%
    05:00 -11°C° 0 mm 4 mps 723 mmHg 89%
    06:00 -11°C° 0 mm 4 mps 722 mmHg 87%
    07:00 -10°C° 0 mm 4 mps 721 mmHg 86%
    08:00 -10°C° 0.1 mm 5 mps 721 mmHg 87%
    09:00 -10°C° 0.1 mm 5 mps 720 mmHg 88%
    10:00 -10°C° 0.1 mm 5 mps 720 mmHg 90%
    11:00 -8°C° 0.1 mm 5 mps 719 mmHg 89%
    12:00 -8°C° 0.1 mm 5 mps 719 mmHg 88%
    13:00 -7°C° 0.1 mm 5 mps 718 mmHg 86%
    14:00 -7°C° 0 mm 4 mps 717 mmHg 87%
    15:00 -8°C° 0 mm 4 mps 717 mmHg 88%
    16:00 -8°C° 0 mm 4 mps 717 mmHg 89%
    17:00 -8°C° 0.2 mm 4 mps 716 mmHg 91%
    18:00 -8°C° 0.2 mm 4 mps 715 mmHg 92%
    19:00 -7°C° 0.2 mm 3 mps 715 mmHg 94%
    20:00 -7°C° 0.1 mm 3 mps 715 mmHg 94%
    21:00 -7°C° 0.1 mm 3 mps 714 mmHg 94%
    22:00 -7°C° 0.1 mm 3 mps 714 mmHg 94%
    23:00 -7°C° 0.1 mm 3 mps 714 mmHg 94%

    23 January, Thursday

    Time Temperature Precipitation Wind Pressure Humidity
    00:00 -7°C° 0.1 mm 3 mps 714 mmHg 94%
    01:00 -7°C° 0.1 mm 3 mps 714 mmHg 94%
    02:00 -7°C° 0 mm 3 mps 714 mmHg 93%
    03:00 -7°C° 0 mm 3 mps 715 mmHg 92%
    04:00 -7°C° 0 mm 3 mps 715 mmHg 91%
    05:00 -8°C° 0 mm 3 mps 715 mmHg 90%
    06:00 -10°C° 0 mm 4 mps 716 mmHg 90%
    07:00 -11°C° 0 mm 4 mps 716 mmHg 89%
    08:00 -11°C° 0 mm 4 mps 717 mmHg 87%
    09:00 -12°C° 0 mm 5 mps 717 mmHg 86%
    10:00 -12°C° 0 mm 5 mps 718 mmHg 84%
    11:00 -11°C° 0 mm 5 mps 718 mmHg 82%
    12:00 -10°C° 0 mm 5 mps 718 mmHg 81%
    13:00 -10°C° 0 mm 6 mps 719 mmHg 79%
    14:00 -10°C° 0 mm 5 mps 719 mmHg 81%
    15:00 -11°C° 0 mm 5 mps 720 mmHg 82%
    16:00 -10°C° 0 mm 4 mps 720 mmHg 84%
    17:00 -10°C° 0 mm 4 mps 720 mmHg 86%
    18:00 -11°C° 0 mm 4 mps 721 mmHg 87%
    19:00 -11°C° 0 mm 4 mps 721 mmHg 88%
    20:00 -12°C° 0 mm 4 mps 721 mmHg 89%
    21:00 -12°C° 0 mm 3 mps 722 mmHg 89%
    22:00 -13°C° 0 mm 3 mps 722 mmHg 90%
    23:00 -13°C° 0 mm 3 mps 723 mmHg 90%

    24 January, Friday

    Time Temperature Precipitation Wind Pressure Humidity
    00:00 -13°C° 0 mm 3 mps 723 mmHg 90%
    01:00 -13°C° 0 mm 3 mps 723 mmHg 91%
    02:00 -13°C° 0 mm 3 mps 724 mmHg 90%
    03:00 -13°C° 0 mm 3 mps 724 mmHg 90%
    04:00 -14°C° 0 mm 4 mps 724 mmHg 90%
    05:00 -15°C° 0 mm 4 mps 725 mmHg 90%
    06:00 -15°C° 0 mm 4 mps 725 mmHg 90%
    07:00 -16°C° 0 mm 4 mps 725 mmHg 90%
    08:00 -16°C° 0 mm 4 mps 725 mmHg 89%
    09:00 -16°C° 0 mm 4 mps 726 mmHg 87%
    10:00 -16°C° 0 mm 4 mps 726 mmHg 86%
    11:00 -15°C° 0 mm 4 mps 727 mmHg 85%
    12:00 -15°C° 0 mm 4 mps 727 mmHg 84%
    13:00 -14°C° 0 mm 4 mps 727 mmHg 83%
    14:00 -15°C° 0 mm 4 mps 727 mmHg 84%
    15:00 -15°C° 0 mm 4 mps 728 mmHg 86%
    16:00 -15°C° 0 mm 3 mps 728 mmHg 87%
    17:00 -15°C° 0 mm 3 mps 728 mmHg 87%
    18:00 -15°C° 0 mm 3 mps 728 mmHg 88%
    19:00 -16°C° 0 mm 3 mps 728 mmHg 88%
    20:00 -17°C° 0 mm 4 mps 729 mmHg 88%
    21:00 -17°C° 0 mm 4 mps 729 mmHg 87%
    22:00 -17°C° 0 mm 4 mps 729 mmHg 87%
    23:00 -17°C° 0 mm 4 mps 729 mmHg 87%

    25 January, Saturday

    Time Temperature Precipitation Wind Pressure Humidity
    00:00 -16°C° 0 mm 3 mps 729 mmHg 88%
    01:00 -16°C° 0 mm 3 mps 729 mmHg 88%
    02:00 -16°C° 0 mm 3 mps 730 mmHg 88%
    03:00 -16°C° 0 mm 3 mps 730 mmHg 88%
    04:00 -16°C° 0 mm 3 mps 730 mmHg 88%
    05:00 -16°C° 0 mm 3 mps 730 mmHg 88%
    06:00 -16°C° 0 mm 3 mps 730 mmHg 89%
    07:00 -16°C° 0 mm 3 mps 730 mmHg 89%
    08:00 -16°C° 0 mm 3 mps 730 mmHg 89%
    09:00 -17°C° 0 mm 4 mps 730 mmHg 88%
    10:00 -17°C° 0 mm 4 mps 731 mmHg 87%
    11:00 -16°C° 0 mm 4 mps 730 mmHg 85%
    12:00 -16°C° 0 mm 4 mps 730 mmHg 84%
    13:00 -15°C° 0 mm 4 mps 730 mmHg 83%
    14:00 -14°C° 0 mm 3 mps 730 mmHg 85%
    15:00 -15°C° 0 mm 3 mps 730 mmHg 86%
    16:00 -14°C° 0 mm 2 mps 730 mmHg 88%
    17:00 -15°C° 0 mm 3 mps 730 mmHg 89%
    18:00 -15°C° 0 mm 3 mps 730 mmHg 90%
    19:00 -15°C° 0 mm 3 mps 730 mmHg 90%
    20:00 -16°C° 0 mm 3 mps 730 mmHg 90%
    21:00 -16°C° 0 mm 3 mps 730 mmHg 89%
    22:00 -16°C° 0 mm 3 mps 730 mmHg 89%
    23:00 -17°C° 0 mm 3 mps 730 mmHg 90%
    Show more